| time (UTC) | temp F | wind direction | speed knots | gust knots | rain 1hr in | rain 24hr in | rain mn in | humidity % | barometer mb |
| 20260504001735 | 54 | 80 | 0.0 | 0.0 | 0.00 | 0.00 | 0.00 | 56 | |
| 20260504001232 | 54 | 73 | 0.9 | 0.9 | 0.00 | 0.00 | 0.00 | 56 | |
| 20260504000728 | 55 | 94 | 0.9 | 0.9 | 0.00 | 0.00 | 0.00 | 53 | |
| 20260504000226 | 55 | 123 | 0.9 | 0.9 | 0.00 | 0.00 | 0.00 | 53 | |
| 20260503235724 | 55 | 202 | 0.9 | 0.9 | 0.00 | 0.00 | 0.00 | 52 | |
| 20260503235221 | 56 | 123 | 1.7 | 1.7 | 0.00 | 0.00 | 0.00 | 52 | |
| 20260503234718 | 56 | 274 | 0.0 | 0.9 | 0.00 | 0.00 | 0.00 | 51 | |
| 20260503234216 | 57 | 151 | 0.9 | 1.7 | 0.00 | 0.00 | 0.00 | 49 | |
| 20260503233713 | 57 | 144 | 0.9 | 1.7 | 0.00 | 0.00 | 0.00 | 51 | |
| 20260503233209 | 58 | 94 | 0.9 | 0.9 | 0.00 | 0.00 | 0.00 | 48 | |
| 20260503232706 | 58 | 84 | 0.0 | 0.0 | 0.00 | 0.00 | 0.00 | 49 | |
| 20260503232203 | 58 | 103 | 0.9 | 2.6 | 0.00 | 0.00 | 0.00 | 49 | |
| 20260503231701 | 58 | 70 | 0.0 | 0.0 | 0.00 | 0.00 | 0.00 | 48 | |
| 20260503231157 | 57 | 162 | 0.9 | 1.7 | 0.00 | 0.00 | 0.00 | 46 | |
| 20260503230654 | 58 | 111 | 0.0 | 0.0 | 0.00 | 0.00 | 0.00 | 48 | |
| 20260503230151 | 58 | 203 | 0.9 | 0.9 | 0.00 | 0.00 | 0.00 | 47 | |
| 20260503225648 | 58 | 64 | 0.0 | 0.0 | 0.00 | 0.00 | 0.00 | 47 | |
| 20260503225148 | 57 | 174 | 0.9 | 1.7 | 0.00 | 0.00 | 0.00 | 47 | |
| 20260503224646 | 57 | 151 | 0.9 | 0.9 | 0.00 | 0.00 | 0.00 | 46 | |
| 20260503224143 | 57 | 93 | 0.9 | 0.9 | 0.00 | 0.00 | 0.00 | 47 | |
| 20260503223641 | 57 | 337 | 0.0 | 0.9 | 0.00 | 0.00 | 0.00 | 48 | |
| 20260503223137 | 58 | 143 | 2.6 | 2.6 | 0.00 | 0.00 | 0.00 | 46 | |
| 20260503222635 | 58 | 282 | 0.9 | 1.7 | 0.00 | 0.00 | 0.00 | 47 | |
| 20260503222132 | 58 | 65 | 0.9 | 0.9 | 0.00 | 0.00 | 0.00 | 45 | |
| 20260503221631 | 58 | 163 | 0.0 | 0.9 | 0.00 | 0.00 | 0.00 | 46 | |
| 20260503221128 | 58 | 64 | 0.0 | 0.0 | 0.00 | 0.00 | 0.00 | 46 | |
| 20260503220624 | 58 | 190 | 0.9 | 1.7 | 0.00 | 0.00 | 0.00 | 44 | |
| 20260503220121 | 58 | 65 | 0.9 | 1.7 | 0.00 | 0.00 | 0.00 | 44 | |
| 20260503215618 | 58 | 87 | 2.6 | 4.3 | 0.00 | 0.00 | 0.00 | 45 | |
| 20260503215115 | 58 | 188 | 0.9 | 0.9 | 0.00 | 0.00 | 0.00 | 45 | |
| 20260503214613 | 58 | 189 | 0.9 | 0.9 | 0.00 | 0.00 | 0.00 | 46 | |
| 20260503214109 | 58 | 82 | 0.0 | 0.9 | 0.00 | 0.00 | 0.00 | 46 | |
| 20260503213609 | 58 | 248 | 0.0 | 0.9 | 0.00 | 0.00 | 0.00 | 45 | |
| 20260503213104 | 59 | 162 | 1.7 | 2.6 | 0.00 | 0.00 | 0.00 | 43 | |
| 20260503212602 | 59 | 303 | 0.9 | 1.7 | 0.00 | 0.00 | 0.00 | 43 | |
| 20260503212059 | 60 | 125 | 0.9 | 0.9 | 0.00 | 0.00 | 0.00 | 44 | |
| 20260503211556 | 60 | 286 | 0.9 | 1.7 | 0.00 | 0.00 | 0.00 | 42 | |
| 20260503211051 | 60 | 303 | 2.6 | 4.3 | 0.00 | 0.00 | 0.00 | 42 | |
| 20260503210549 | 60 | 58 | 0.0 | 0.9 | 0.00 | 0.00 | 0.00 | 42 | |
| 20260503210044 | 60 | 69 | 0.0 | 0.0 | 0.00 | 0.00 | 0.00 | 44 | |
| 20260503205541 | 59 | 242 | 1.7 | 1.7 | 0.00 | 0.00 | 0.00 | 42 | |
| 20260503205038 | 59 | 41 | 2.6 | 4.3 | 0.00 | 0.00 | 0.00 | 42 | |
| 20260503204534 | 60 | 179 | 0.9 | 1.7 | 0.00 | 0.00 | 0.00 | 44 | |
| 20260503204031 | 60 | 297 | 0.9 | 0.9 | 0.00 | 0.00 | 0.00 | 43 | |
| 20260503203529 | 59 | 274 | 0.9 | 0.9 | 0.00 | 0.00 | 0.00 | 42 | |
| 20260503203026 | 59 | 278 | 0.9 | 1.7 | 0.00 | 0.00 | 0.00 | 43 | |
| 20260503202524 | 59 | 286 | 0.9 | 1.7 | 0.00 | 0.00 | 0.00 | 44 | |
| 20260503202021 | 59 | 235 | 1.7 | 1.7 | 0.00 | 0.00 | 0.00 | 42 | |
| 20260503201519 | 59 | 147 | 1.7 | 4.3 | 0.00 | 0.00 | 0.00 | 42 | |
| 20260503201016 | 59 | 167 | 2.6 | 2.6 | 0.00 | 0.00 | 0.00 | 42 | |
| 20260503200512 | 59 | 190 | 2.6 | 2.6 | 0.00 | 0.00 | 0.00 | 42 | |
| 20260503200009 | 59 | 171 | 0.9 | 0.9 | 0.00 | 0.00 | 0.00 | 42 | |
| 20260503195507 | 58 | 138 | 1.7 | 4.3 | 0.00 | 0.00 | 0.00 | 44 | |
| 20260503195003 | 59 | 299 | 0.9 | 1.7 | 0.00 | 0.00 | 0.00 | 43 | |
| 20260503194500 | 59 | 112 | 1.7 | 1.7 | 0.00 | 0.00 | 0.00 | 42 | |
| 20260503193955 | 59 | 276 | 3.5 | 4.3 | 0.00 | 0.00 | 0.00 | 42 | |
| 20260503193451 | 58 | 95 | 1.7 | 1.7 | 0.00 | 0.00 | 0.00 | 42 | |
| 20260503192947 | 59 | 22 | 0.0 | 0.0 | 0.00 | 0.00 | 0.00 | 43 | |
| 20260503192443 | 59 | 119 | 1.7 | 1.7 | 0.00 | 0.00 | 0.00 | 43 | |
| 20260503191939 | 58 | 277 | 1.7 | 1.7 | 0.00 | 0.00 | 0.00 | 44 | |
| 20260503191437 | 58 | 260 | 0.9 | 0.9 | 0.00 | 0.00 | 0.00 | 43 | |
| 20260503190932 | 59 | 125 | 1.7 | 2.6 | 0.00 | 0.00 | 0.00 | 44 | |
| 20260503190431 | 58 | 173 | 0.0 | 0.9 | 0.00 | 0.00 | 0.00 | 44 | |
| 20260503185927 | 59 | 76 | 0.9 | 1.7 | 0.00 | 0.00 | 0.00 | 44 | |
| 20260503185424 | 59 | 54 | 0.9 | 1.7 | 0.00 | 0.00 | 0.00 | 42 | |
| 20260503184923 | 59 | 280 | 0.0 | 0.9 | 0.00 | 0.00 | 0.00 | 44 | |
| 20260503184420 | 59 | 191 | 0.0 | 0.9 | 0.00 | 0.00 | 0.00 | 45 | |
| 20260503183916 | 58 | 256 | 0.9 | 1.7 | 0.00 | 0.00 | 0.00 | 46 | |
| 20260503183413 | 57 | 163 | 1.7 | 2.6 | 0.00 | 0.00 | 0.00 | 46 | |
| 20260503182910 | 58 | 278 | 2.6 | 4.3 | 0.00 | 0.00 | 0.00 | 44 | |
| 20260503182409 | 59 | 60 | 0.9 | 0.9 | 0.00 | 0.00 | 0.00 | 45 | |
| 20260503181905 | 58 | 66 | 0.0 | 0.0 | 0.00 | 0.00 | 0.00 | 44 | |
| 20260503181403 | 59 | 51 | 0.0 | 0.0 | 0.00 | 0.00 | 0.00 | 45 | |
| 20260503180859 | 59 | 9 | 0.0 | 0.9 | 0.00 | 0.00 | 0.00 | 44 | |
| 20260503180357 | 57 | 283 | 3.5 | 5.2 | 0.00 | 0.00 | 0.00 | 46 | |
| 20260503175853 | 57 | 123 | 1.7 | 2.6 | 0.00 | 0.00 | 0.00 | 44 | |
| 20260503175351 | 57 | 181 | 0.9 | 1.7 | 0.00 | 0.00 | 0.00 | 48 | |
| 20260503174846 | 58 | 307 | 2.6 | 4.3 | 0.00 | 0.00 | 0.00 | 44 | |
| 20260503174345 | 58 | 140 | 0.9 | 0.9 | 0.00 | 0.00 | 0.00 | 46 | |
| 20260503173845 | 57 | 127 | 0.9 | 0.9 | 0.00 | 0.00 | 0.00 | 46 | |
| 20260503173342 | 57 | 142 | 0.9 | 1.7 | 0.00 | 0.00 | 0.00 | 45 | |
| 20260503172838 | 57 | 82 | 0.9 | 1.7 | 0.00 | 0.00 | 0.00 | 46 | |
| 20260503172336 | 58 | 70 | 0.0 | 0.0 | 0.00 | 0.00 | 0.00 | 45 | |
| 20260503171832 | 57 | 274 | 0.0 | 0.9 | 0.00 | 0.00 | 0.00 | 46 | |
| 20260503171329 | 57 | 76 | 0.0 | 0.9 | 0.00 | 0.00 | 0.00 | 44 | |
| 20260503170826 | 59 | 296 | 0.9 | 1.7 | 0.00 | 0.00 | 0.00 | 46 | |
| 20260503170323 | 59 | 319 | 0.9 | 0.9 | 0.00 | 0.00 | 0.00 | 47 | |
| 20260503150715 | 53 | 143 | 1.7 | 2.6 | 0.00 | 0.00 | 0.00 | 50 | |
| 20260503150211 | 52 | 276 | 0.9 | 1.7 | 0.00 | 0.00 | 0.00 | 52 | |
| 20260503140136 | 48 | 292 | 0.9 | 0.9 | 0.00 | 0.00 | 0.00 | 58 | |
| 20260503131105 | 47 | 335 | 0.0 | 0.0 | 0.00 | 0.00 | 0.00 | 62 | |
| 20260503130603 | 46 | 38 | 0.9 | 1.7 | 0.00 | 0.00 | 0.00 | 62 | |
| 20260503110453 | 31 | 75 | 0.0 | 0.0 | 0.00 | 0.00 | 0.00 | 99 | |
| 20260503090338 | 29 | 38 | 0.0 | 0.9 | 0.00 | 0.00 | 0.00 | 98 | |
| 20260503081306 | 28 | 57 | 0.0 | 0.0 | 0.00 | 0.00 | 0.00 | 97 | |
| 20260503080802 | 28 | 62 | 0.0 | 0.0 | 0.00 | 0.00 | 0.00 | 97 | |
| 20260503080259 | 29 | 62 | 0.0 | 0.0 | 0.00 | 0.00 | 0.00 | 97 | |
| 20260503072736 | 29 | 62 | 0.0 | 0.0 | 0.00 | 0.00 | 0.00 | 96 | |
| 20260503072232 | 29 | 62 | 0.0 | 0.0 | 0.00 | 0.00 | 0.00 | 96 | |
| 20260503071729 | 29 | 62 | 0.0 | 0.0 | 0.00 | 0.00 | 0.00 | 96 | |
| 20260503071226 | 29 | 62 | 0.0 | 0.0 | 0.00 | 0.00 | 0.00 | 96 | |
| 20260503070722 | 29 | 60 | 0.0 | 0.0 | 0.00 | 0.00 | 0.00 | 96 | |
| 20260503070221 | 29 | 62 | 0.0 | 0.0 | 0.00 | 0.00 | 0.00 | 96 | |
| 20260503060145 | 30 | 61 | 0.0 | 0.0 | 0.00 | 0.00 | 0.00 | 94 | |
| 20260503054632 | 30 | 60 | 0.0 | 0.0 | 0.00 | 0.00 | 0.00 | 93 | |
| 20260503054129 | 31 | 61 | 0.0 | 0.0 | 0.00 | 0.00 | 0.00 | 93 | |
| 20260503053627 | 31 | 62 | 0.0 | 0.0 | 0.00 | 0.00 | 0.00 | 92 | |
| 20260503053126 | 31 | 62 | 0.0 | 0.0 | 0.00 | 0.00 | 0.00 | 92 | |
| 20260503052622 | 31 | 63 | 0.0 | 0.0 | 0.00 | 0.00 | 0.00 | 92 | |
| 20260503052118 | 32 | 58 | 0.0 | 0.0 | 0.00 | 0.00 | 0.00 | 91 | |
| 20260503051614 | 32 | 57 | 0.0 | 0.0 | 0.00 | 0.00 | 0.00 | 91 | |
| 20260503051112 | 32 | 57 | 0.0 | 0.0 | 0.00 | 0.00 | 0.00 | 91 | |
| 20260503050608 | 32 | 58 | 0.0 | 0.0 | 0.00 | 0.00 | 0.00 | 90 | |
| 20260503050105 | 33 | 58 | 0.0 | 0.0 | 0.00 | 0.00 | 0.00 | 90 | |
| 20260503045602 | 33 | 58 | 0.0 | 0.0 | 0.00 | 0.00 | 0.00 | 89 | |
| 20260503045059 | 33 | 57 | 0.0 | 0.0 | 0.00 | 0.00 | 0.00 | 89 | |
| 20260503044555 | 34 | 57 | 0.0 | 0.0 | 0.00 | 0.00 | 0.00 | 88 | |
| 20260503044053 | 34 | 66 | 0.0 | 0.0 | 0.00 | 0.00 | 0.00 | 87 | |
| 20260503043549 | 35 | 66 | 0.0 | 0.0 | 0.00 | 0.00 | 0.00 | 86 | |
| 20260503043046 | 35 | 58 | 0.0 | 0.0 | 0.00 | 0.00 | 0.00 | 85 | |
| 20260503042543 | 36 | 57 | 0.0 | 0.0 | 0.00 | 0.00 | 0.00 | 83 | |
| 20260503042039 | 37 | 58 | 0.0 | 0.0 | 0.00 | 0.00 | 0.00 | 81 | |
| 20260503041536 | 37 | 54 | 0.0 | 0.0 | 0.00 | 0.00 | 0.00 | 79 | |
| 20260503041034 | 38 | 54 | 0.0 | 0.0 | 0.00 | 0.00 | 0.00 | 77 | |
| 20260503040531 | 38 | 40 | 0.0 | 0.0 | 0.00 | 0.00 | 0.00 | 77 | |
| 20260503040028 | 38 | 43 | 0.0 | 0.0 | 0.00 | 0.00 | 0.00 | 77 | |
| 20260503035525 | 38 | 38 | 0.0 | 0.0 | 0.00 | 0.00 | 0.00 | 77 | |
| 20260503035022 | 38 | 350 | 0.0 | 0.9 | 0.00 | 0.00 | 0.00 | 76 | |
| 20260503034520 | 38 | 35 | 0.0 | 0.0 | 0.00 | 0.00 | 0.00 | 76 | |
| 20260503034016 | 38 | 27 | 0.0 | 0.0 | 0.00 | 0.00 | 0.00 | 76 | |
| 20260503033514 | 39 | 358 | 0.0 | 0.0 | 0.00 | 0.00 | 0.00 | 76 | |
| 20260503033012 | 39 | 27 | 0.0 | 0.0 | 0.00 | 0.00 | 0.00 | 76 | |
| 20260503032510 | 39 | 353 | 0.9 | 0.9 | 0.00 | 0.00 | 0.00 | 76 | |
| 20260503032008 | 39 | 37 | 0.0 | 0.0 | 0.00 | 0.00 | 0.00 | 75 | |
| 20260503031505 | 39 | 38 | 0.0 | 0.0 | 0.00 | 0.00 | 0.00 | 76 | |
| 20260503031002 | 39 | 38 | 0.0 | 0.0 | 0.00 | 0.00 | 0.00 | 76 | |
| 20260503030458 | 39 | 310 | 0.0 | 0.9 | 0.00 | 0.00 | 0.00 | 76 | |
| 20260503025955 | 39 | 37 | 0.0 | 0.0 | 0.00 | 0.00 | 0.00 | 76 | |
| 20260503025452 | 39 | 22 | 0.0 | 0.0 | 0.00 | 0.00 | 0.00 | 75 | |
| 20260503024949 | 39 | 24 | 0.0 | 0.0 | 0.00 | 0.00 | 0.00 | 76 | |
| 20260503024445 | 39 | 58 | 0.0 | 0.0 | 0.00 | 0.00 | 0.00 | 75 | |
| 20260503023943 | 39 | 345 | 0.0 | 0.0 | 0.00 | 0.00 | 0.00 | 75 | |
| 20260503023440 | 39 | 301 | 0.0 | 0.9 | 0.00 | 0.00 | 0.00 | 75 | |
| 20260503022937 | 39 | 37 | 0.0 | 0.0 | 0.00 | 0.00 | 0.00 | 75 | |
| 20260503022432 | 39 | 294 | 0.9 | 0.9 | 0.00 | 0.00 | 0.00 | 74 | |
| 20260503021928 | 39 | 307 | 0.9 | 1.7 | 0.00 | 0.00 | 0.00 | 74 | |
| 20260503021424 | 39 | 1 | 0.0 | 0.0 | 0.00 | 0.00 | 0.00 | 75 | |
| 20260503020922 | 39 | 38 | 0.0 | 0.0 | 0.00 | 0.00 | 0.00 | 75 | |
| 20260503020419 | 39 | 37 | 0.0 | 0.0 | 0.00 | 0.00 | 0.00 | 74 | |
| 20260503015915 | 39 | 273 | 0.0 | 0.0 | 0.00 | 0.00 | 0.00 | 73 | |
| 20260503015413 | 39 | 31 | 0.0 | 0.9 | 0.00 | 0.00 | 0.00 | 73 | |
| 20260503014908 | 39 | 15 | 0.0 | 0.0 | 0.00 | 0.00 | 0.00 | 73 | |
| 20260503014406 | 39 | 9 | 0.0 | 0.0 | 0.00 | 0.00 | 0.00 | 73 | |
| 20260503013904 | 39 | 12 | 0.0 | 0.0 | 0.00 | 0.00 | 0.00 | 72 | |
| 20260503013400 | 39 | 30 | 0.9 | 0.9 | 0.00 | 0.00 | 0.00 | 72 | |
| 20260503012857 | 39 | 40 | 0.0 | 0.0 | 0.00 | 0.00 | 0.00 | 72 | |
| 20260503012355 | 39 | 355 | 0.9 | 0.9 | 0.00 | 0.00 | 0.00 | 72 | |
| 20260503011852 | 39 | 32 | 0.0 | 0.0 | 0.00 | 0.00 | 0.00 | 71 | |
| 20260503011349 | 39 | 323 | 0.0 | 0.0 | 0.00 | 0.00 | 0.00 | 71 | |
| 20260503010845 | 39 | 4 | 0.9 | 0.9 | 0.00 | 0.00 | 0.00 | 71 | |
| 20260503010342 | 39 | 20 | 0.9 | 0.9 | 0.00 | 0.00 | 0.00 | 70 | |
| 20260503005839 | 39 | 308 | 1.7 | 1.7 | 0.00 | 0.00 | 0.00 | 70 | |
| 20260503005337 | 39 | 337 | 0.9 | 1.7 | 0.00 | 0.00 | 0.00 | 71 | |
| 20260503004832 | 39 | 351 | 0.9 | 0.9 | 0.00 | 0.00 | 0.00 | 70 | |
| 20260503004330 | 40 | 346 | 0.0 | 0.9 | 0.00 | 0.00 | 0.00 | 70 | |
| 20260503003828 | 40 | 325 | 0.9 | 0.9 | 0.00 | 0.00 | 0.00 | 69 | |
| 20260503003324 | 40 | 5 | 0.0 | 0.0 | 0.00 | 0.00 | 0.00 | 69 | |
| 20260503002821 | 40 | 311 | 0.9 | 0.9 | 0.00 | 0.00 | 0.00 | 69 | |
| 20260503002318 | 40 | 15 | 0.0 | 0.9 | 0.00 | 0.00 | 0.00 | 68 |